Carmi, IL

9:14 PM CST on December 04, 2016 (GMT -0600)
Carmi Municipal

Weather History for KCUL - December, 2012

Change the Weather History Date:

Saturday, December 29, 2012

  Actual Average (KEHR) Record (KEHR)
Temperature  
Mean Temperature 26 °F -  
Max Temperature 33 °F 41 °F 71 °F (1984)
Min Temperature 15 °F 27 °F -2 °F (1935)
Degree Days  
Heating Degree Days 40    
Moisture  
Dew Point 27 °F    
Average Humidity 89    
Maximum Humidity 99    
Minimum Humidity 74    
Precipitation  
Precipitation 0.00 in - - ()
Sea Level Pressure  
Sea Level Pressure 30.09 in    
Wind  
Wind Speed 7 mph (WNW)    
Max Wind Speed 18 mph    
Max Gust Speed 24 mph    
Visibility 6 miles    
Events Snow    
Averages and records for this station are not official NWS values.
T = Trace of Precipitation, MM = Missing Value Source: NWS Daily Summary

Daily Weather History Graph

Daily Weather History Graph

Search for Another Location

Airport or City:

Trip Planner

Search our weather history database for the weather conditions in past years. The results will help you decide how hot, cold, wet, or windy it might be!

Date:

Astronomy

Dec. 29, 2012 Rise Set
Actual Time 7:08 AM CST 4:41 PM CST
Civil Twilight 6:38 AM CST 5:10 PM CST
Nautical Twilight 6:05 AM CST 5:43 PM CST
Astronomical Twilight 5:33 AM CST 6:16 PM CST
Moon 6:12 PM CST (12/29) 7:43 AM CST (12/29)
Length of Visible Light 10h 32m
Length of Day
9h 33m
Full, 98% of the Moon is Illuminated
Dec 29
Full
Jan 4
Last Quarter
Jan 11
New
Jan 18
First Quarter
Jan 26
Full

Hourly Weather History & Observations

Time (CST) Temp. Windchill Dew Point Humidity Pressure Visibility Wind Dir Wind Speed Gust Speed Precip Events Conditions
12:15 AM 33.3 °F 27.9 °F 33.1 °F 99% 29.83 in 0.8 mi NW 5.8 mph - N/A Snow Snow
12:35 AM 33.3 °F 28.9 °F 33.1 °F 99% 29.83 in 1.0 mi NW 4.6 mph - N/A Snow Snow
12:55 AM 33.1 °F 28.7 °F 32.9 °F 99% 29.84 in 1.5 mi NW 4.6 mph - N/A Snow Light Snow
1:15 AM 33.1 °F 30.0 °F 32.9 °F 99% 29.84 in 1.2 mi WNW 3.5 mph - N/A Snow Light Snow
1:35 AM 33.1 °F 30.0 °F 32.9 °F 99% 29.85 in 1.2 mi NW 3.5 mph - N/A Snow Light Snow
1:55 AM 32.9 °F - 32.5 °F 99% 29.85 in 1.5 mi Calm Calm - N/A Snow Light Snow
2:15 AM 32.9 °F 29.8 °F 32.5 °F 99% 29.86 in 1.5 mi WNW 3.5 mph - N/A Snow Light Snow
2:35 AM 32.9 °F 29.8 °F 32.7 °F 99% 29.87 in 1.8 mi WNW 3.5 mph - N/A Snow Light Snow
2:55 AM 32.9 °F 29.8 °F 32.5 °F 99% 29.88 in 2.0 mi WNW 3.5 mph - N/A Snow Light Snow
3:15 AM 32.9 °F 27.5 °F 32.5 °F 99% 29.88 in 3.0 mi WNW 5.8 mph - N/A Snow Light Snow
3:35 AM 32.9 °F 26.7 °F 32.4 °F 98% 29.89 in 2.5 mi WNW 6.9 mph - N/A Snow Light Snow
3:55 AM 33.1 °F 28.7 °F 32.4 °F 97% 29.89 in 3.0 mi WNW 4.6 mph - N/A Snow Light Snow
4:15 AM 33.4 °F 28.1 °F 32.2 °F 95% 29.89 in 7.0 mi NW 5.8 mph - N/A   Overcast
4:35 AM 33.4 °F 29.1 °F 32.2 °F 95% 29.90 in 5.0 mi WNW 4.6 mph - N/A   Overcast
4:55 AM 33.4 °F 29.1 °F 32.0 °F 94% 29.91 in 7.0 mi WNW 4.6 mph - N/A   Overcast
5:15 AM 33.3 °F 27.9 °F 32.0 °F 95% 29.91 in 5.0 mi WNW 5.8 mph - N/A   Overcast
5:35 AM 33.3 °F 27.9 °F 32.0 °F 95% 29.92 in 5.0 mi WNW 5.8 mph - N/A   Overcast
5:55 AM 33.3 °F 28.9 °F 32.0 °F 95% 29.94 in 5.0 mi WNW 4.6 mph - N/A   Overcast
6:15 AM 33.3 °F 27.9 °F 32.0 °F 95% 29.94 in 5.0 mi WNW 5.8 mph - N/A   Overcast
6:35 AM 33.3 °F 27.9 °F 32.0 °F 95% 29.96 in 5.0 mi WNW 5.8 mph - N/A   Overcast
6:55 AM 33.1 °F 26.9 °F 32.0 °F 96% 29.97 in 7.0 mi WNW 6.9 mph - N/A   Overcast
7:15 AM 33.1 °F 27.7 °F 31.8 °F 95% 29.98 in 7.0 mi WNW 5.8 mph - N/A   Overcast
7:35 AM 32.9 °F 28.5 °F 31.8 °F 96% 29.98 in 7.0 mi West 4.6 mph - N/A   Overcast
7:55 AM 32.9 °F 27.5 °F 32.0 °F 96% 29.99 in 4.0 mi WNW 5.8 mph - N/A   Overcast
8:15 AM 33.1 °F 28.7 °F 31.8 °F 95% 30.01 in 4.0 mi West 4.6 mph - N/A   Overcast
8:35 AM 33.1 °F 27.7 °F 31.6 °F 94% 30.02 in 5.0 mi West 5.8 mph - N/A   Overcast
8:55 AM 33.1 °F 27.7 °F 31.6 °F 94% 30.03 in 5.0 mi West 5.8 mph - N/A   Overcast
9:15 AM 33.3 °F 27.1 °F 31.1 °F 92% 30.04 in 7.0 mi WNW 6.9 mph - N/A   Overcast
9:35 AM 33.3 °F 25.7 °F 30.6 °F 90% 30.05 in 7.0 mi WNW 9.2 mph - N/A   Overcast
9:55 AM 33.4 °F 26.6 °F 30.7 °F 90% 30.06 in 7.0 mi WNW 8.1 mph - N/A   Overcast
10:15 AM 33.4 °F 26.6 °F 31.1 °F 91% 30.07 in 5.0 mi WNW 8.1 mph - N/A   Overcast
10:35 AM 33.4 °F 23.9 °F 29.1 °F 84% 30.07 in 7.0 mi WNW 13.8 mph 18.4 mph N/A   Overcast
10:55 AM 33.1 °F 24.9 °F 28.2 °F 82% 30.07 in 10.0 mi WNW 10.4 mph - N/A   Overcast
11:15 AM 32.9 °F 24.7 °F 28.0 °F 82% 30.08 in 7.0 mi WNW 10.4 mph 17.3 mph N/A   Overcast
11:35 AM 32.9 °F 23.7 °F 28.4 °F 84% 30.08 in 7.0 mi WNW 12.7 mph - N/A   Overcast
11:55 AM 32.7 °F 23.4 °F 28.4 °F 84% 30.08 in 7.0 mi WNW 12.7 mph - N/A Snow Light Snow
12:15 PM 32.4 °F 23.0 °F 28.4 °F 85% 30.08 in 5.0 mi WNW 12.7 mph 18.4 mph N/A Snow Light Snow
12:35 PM 32.9 °F 25.3 °F 29.1 °F 86% 30.08 in 5.0 mi West 9.2 mph - N/A Snow Light Snow
12:55 PM 32.9 °F 24.7 °F 29.1 °F 86% 30.09 in 7.0 mi WNW 10.4 mph - N/A   Overcast
1:15 PM 32.5 °F 23.2 °F 28.9 °F 87% 30.10 in 5.0 mi WNW 12.7 mph - N/A   Overcast
1:35 PM 32.4 °F 23.5 °F 29.3 °F 88% 30.10 in 4.0 mi WNW 11.5 mph - N/A   Overcast
1:55 PM 32.9 °F 21.6 °F 29.3 °F 87% 30.11 in 5.0 mi West 18.4 mph - N/A   Overcast
2:35 PM 31.6 °F 20.4 °F 26.2 °F 80% 30.13 in 7.0 mi WNW 17.3 mph 24.2 mph N/A   Overcast
2:55 PM 30.9 °F 19.8 °F 26.2 °F 83% 30.14 in 7.0 mi WNW 16.1 mph 21.9 mph N/A   Overcast
3:15 PM 30.2 °F 18.9 °F 26.2 °F 85% 30.16 in 5.0 mi WNW 16.1 mph 23.0 mph N/A   Overcast
3:35 PM 29.8 °F 18.4 °F 25.3 °F 83% 30.17 in 10.0 mi West 16.1 mph - N/A   Overcast
3:55 PM 29.7 °F 19.1 °F 24.8 °F 82% 30.18 in 7.0 mi West 13.8 mph - N/A   Overcast
4:15 PM 29.3 °F 18.2 °F 23.9 °F 80% 30.20 in 10.0 mi WNW 15.0 mph - N/A   Overcast
4:35 PM 28.8 °F 18.4 °F 23.5 °F 81% 30.20 in 10.0 mi WNW 12.7 mph - N/A   Overcast
4:55 PM 28.6 °F 18.7 °F 23.0 °F 80% 30.21 in 10.0 mi WNW 11.5 mph 15.0 mph N/A   Overcast
5:15 PM 28.6 °F 17.2 °F 22.6 °F 78% 30.23 in 10.0 mi West 15.0 mph - N/A   Overcast
5:35 PM 28.4 °F 19.7 °F 22.6 °F 79% 30.24 in 10.0 mi West 9.2 mph - N/A   Overcast
5:55 PM 28.4 °F 19.1 °F 22.8 °F 80% 30.25 in 10.0 mi West 10.4 mph - N/A   Overcast
6:15 PM 28.8 °F 20.9 °F 22.8 °F 78% 30.26 in 10.0 mi West 8.1 mph - N/A   Overcast
6:35 PM 28.8 °F 19.5 °F 22.6 °F 78% 30.27 in 10.0 mi West 10.4 mph - N/A   Overcast
7:15 PM 27.7 °F 17.6 °F 20.3 °F 74% 30.29 in 10.0 mi West 11.5 mph - N/A   Overcast
7:35 PM 26.4 °F 18.9 °F 19.6 °F 75% 30.30 in 10.0 mi West 6.9 mph - N/A   Mostly Cloudy
7:55 PM 25.0 °F 17.1 °F 18.5 °F 76% 30.31 in 10.0 mi West 6.9 mph - N/A   Mostly Cloudy
8:15 PM 21.9 °F 13.4 °F 17.2 °F 82% 30.31 in 10.0 mi WSW 6.9 mph - N/A   Scattered Clouds
8:35 PM 21.2 °F 13.6 °F 17.2 °F 85% 30.32 in 10.0 mi WSW 5.8 mph - N/A   Clear
8:55 PM 19.6 °F 11.7 °F 15.6 °F 85% 30.33 in 10.0 mi WSW 5.8 mph - N/A   Clear
9:15 PM 20.3 °F 12.5 °F 17.6 °F 89% 30.34 in 10.0 mi SW 5.8 mph - N/A   Clear
9:35 PM 19.6 °F 11.7 °F 18.0 °F 93% 30.34 in 10.0 mi WSW 5.8 mph - N/A   Clear
9:55 PM 18.7 °F 8.6 °F 17.2 °F 94% 30.35 in 10.0 mi WSW 8.1 mph - N/A   Clear
10:15 PM 19.4 °F 9.5 °F 18.0 °F 94% 30.37 in 7.0 mi WSW 8.1 mph - N/A   Clear
10:35 PM 19.2 °F 9.3 °F 17.8 °F 94% 30.37 in 7.0 mi WSW 8.1 mph - N/A   Clear
10:55 PM 20.1 °F 9.5 °F 18.1 °F 92% 30.37 in 7.0 mi West 9.2 mph - N/A   Clear
11:15 PM 19.9 °F 11.1 °F 17.8 °F 91% 30.37 in 10.0 mi West 6.9 mph - N/A   Clear
11:35 PM 18.7 °F 10.6 °F 16.5 °F 91% 30.36 in 7.0 mi West 5.8 mph - N/A   Clear
11:55 PM 15.3 °F 7.9 °F 13.8 °F 94% 30.36 in 5.0 mi West 4.6 mph - N/A   Clear